Regional Weather Roundup
Issued by NWS

Home | Current Version | Previous Version | Graphics & Text | Print | Product List | Glossary On
Versions: 1 2 3 4 5 6 7 8 9 10 11 12 13 14 15 16 17 18 19 20 21 22 23 24 25 26 27 28 29 30 31 32 33 34 35 36 37 38 39 40 41 42 43 44 45 46 47 48 49 50
000
ASUS45 KCYS 260410
RWRWY

WYOMING REGIONAL WEATHER ROUNDUP
NATIONAL WEATHER SERVICE CHEYENNE WY
1000 PM MDT WED APR 25 2018

NOTE:  "FAIR" INDICATES FEW OR NO CLOUDS BELOW 12,000 FEET
WITH NO SIGNIFICANT WEATHER AND/OR OBSTRUCTIONS TO VISIBILITY.

WYZ001-260500-
YELLOWSTONE NATIONAL PARK

CITY           SKY/WX    TMP DP  RH WIND       PRES   REMARKS
LK YELLOWSTONE   N/A     34  27  75 CALM      30.27R
W YELLOWSTONE  NOT AVBL

$$
WYZ002>013-054>058-071-098>099-260500-
NORTHERN WYOMING

CITY           SKY/WX    TMP DP  RH WIND       PRES   REMARKS
JACKSON        CLOUDY    45  23  42 CALM      30.19R
CODY           LGT RAIN  42  36  79 N15G22    30.26R
GREYBULL       CLOUDY    52  33  48 NW26G39   30.15R
WORLAND        FAIR      52  31  44 N22G36    30.12R
SHERIDAN       FAIR      50  32  50 NW20      30.18R
BUFFALO        FAIR      50  29  44 NW35G48   30.14R
GILLETTE       FAIR      51  30  44 N26G36    30.08R
HULETT         FAIR      54  28  37 N9G21     30.07R
NEWCASTLE      FAIR      55  23  28 N18G25    30.00R

$$
WYZ014>020-022>026-101>103-260500-
CENTRAL WYOMING

CITY           SKY/WX    TMP DP  RH WIND       PRES   REMARKS
BIG PINEY      FAIR      45  20  36 N14       30.19R
PINEDALE       FAIR      37  23  56 NW5       30.21R WCI  34
DUBOIS         MOCLDY    41  19  42 W6        30.18R
LANDER         FAIR      52  19  27 N8G18     30.12R
RIVERTON       FAIR      52  18  26 N21G31    30.11R
CASPER         FAIR      51  21  30 NE17G26   30.08R
DOUGLAS        FAIR      53  22  29 N16G26    30.04R

$$
WYZ021-027>030-104>119-260500-
SOUTHERN WYOMING

CITY           SKY/WX    TMP DP  RH WIND       PRES   REMARKS
EVANSTON       FAIR      47  19  33 W14       30.21R
KEMMERER       FAIR      46  23  39 W10G21    30.20R
FORT BRIDGER   CLEAR     48  18  29 W13       30.22R
ROCK SPRINGS   FAIR      51  19  28 W22G28    30.15R
DIXON          FAIR      47  16  28 SW7       30.14R
RAWLINS        FAIR      51   7  16 W16       30.08R
SARATOGA       FAIR      46  12  25 SW9       30.10R
LARAMIE        FAIR      43  12  28 SW16      30.08F
CHEYENNE       FAIR      50  22  33 SW13      30.05R
TORRINGTON     FAIR      53  29  39 SW12      29.90S
PINE BLUFFS    FAIR      37  30  75 SW9       30.01F WCI  31

$$



USA.gov is the U.S. government's official web portal to all federal, state and local government web resources and services.